Time,TemperatureF,DewpointF,PressureIn,WindDirection,WindDirectionDegrees,WindSpeedMPH,WindSpeedGustMPH,Humidity,HourlyPrecipIn,Conditions,Clouds,dailyrainin,SoftwareType,DateUTC
2013-02-07 00:01:00,35.6,33.2,30.06,West,270,4.0,12.0,91,0.00,,,0.00,Weather View 32 v70,2013-02-07 06:01:00,
2013-02-07 00:06:00,35.7,33.1,30.07,WNW,292,4.0,12.0,90,0.00,,,0.00,Weather View 32 v70,2013-02-07 06:06:00,
2013-02-07 00:11:00,35.7,33.1,30.07,WNW,292,4.0,12.0,90,0.00,,,0.00,Weather View 32 v70,2013-02-07 06:11:00,
2013-02-07 00:16:00,35.6,33.2,30.07,NW,315,7.0,12.0,91,0.00,,,0.00,Weather View 32 v70,2013-02-07 06:16:00,
2013-02-07 00:21:00,35.4,33.0,30.07,WNW,292,8.0,12.0,91,0.00,,,0.00,Weather View 32 v70,2013-02-07 06:21:00,
2013-02-07 00:26:00,35.4,33.0,30.07,NW,315,12.0,13.0,91,0.00,,,0.00,Weather View 32 v70,2013-02-07 06:26:00,
2013-02-07 00:31:00,35.2,32.8,30.07,WNW,292,6.0,13.0,91,0.00,,,0.00,Weather View 32 v70,2013-02-07 06:31:00,
2013-02-07 00:36:00,35.0,32.6,30.07,WNW,292,8.0,13.0,91,0.00,,,0.00,Weather View 32 v70,2013-02-07 06:36:00,
2013-02-07 00:41:00,34.9,32.8,30.07,West,270,6.0,14.0,92,0.00,,,0.00,Weather View 32 v70,2013-02-07 06:41:00,
2013-02-07 00:46:00,34.7,32.6,30.07,WNW,292,4.0,14.0,92,0.00,,,0.00,Weather View 32 v70,2013-02-07 06:46:00,
2013-02-07 00:51:00,34.7,32.6,30.07,WNW,292,7.0,14.0,92,0.00,,,0.00,Weather View 32 v70,2013-02-07 06:51:00,
2013-02-07 00:56:00,34.7,32.6,30.07,West,270,6.0,14.0,92,0.00,,,0.00,Weather View 32 v70,2013-02-07 06:56:00,
2013-02-07 01:01:00,34.7,32.6,30.07,West,270,5.0,15.0,92,0.00,,,0.00,Weather View 32 v70,2013-02-07 07:01:00,
2013-02-07 01:06:00,34.7,32.6,30.07,WNW,292,9.0,15.0,92,0.00,,,0.00,Weather View 32 v70,2013-02-07 07:06:00,
2013-02-07 01:11:00,34.6,32.5,30.08,WNW,292,12.0,15.0,92,0.00,,,0.00,Weather View 32 v70,2013-02-07 07:11:00,
2013-02-07 01:16:00,34.5,32.7,30.07,NW,315,6.0,16.0,93,0.00,,,0.00,Weather View 32 v70,2013-02-07 07:16:00,
2013-02-07 01:21:00,34.3,32.5,30.08,West,270,4.0,16.0,93,0.00,,,0.00,Weather View 32 v70,2013-02-07 07:21:00,
2013-02-07 01:26:00,34.1,32.3,30.08,WNW,292,4.0,16.0,93,0.00,,,0.00,Weather View 32 v70,2013-02-07 07:26:00,
2013-02-07 01:31:00,33.9,32.1,30.08,WNW,292,4.0,16.0,93,0.00,,,0.00,Weather View 32 v70,2013-02-07 07:31:00,
2013-02-07 01:36:00,33.8,32.0,30.09,WNW,292,8.0,16.0,93,0.00,,,0.00,Weather View 32 v70,2013-02-07 07:36:00,
2013-02-07 01:41:00,33.7,31.9,30.09,WNW,292,11.0,16.0,93,0.00,,,0.00,Weather View 32 v70,2013-02-07 07:41:00,
2013-02-07 01:46:00,33.6,31.8,30.08,NW,315,11.0,16.0,93,0.00,,,0.00,Weather View 32 v70,2013-02-07 07:46:00,
2013-02-07 01:51:00,33.4,31.6,30.09,NW,315,10.0,16.0,93,0.00,,,0.00,Weather View 32 v70,2013-02-07 07:51:00,
2013-02-07 01:56:00,33.3,31.8,30.09,WNW,292,9.0,16.0,94,0.00,,,0.00,Weather View 32 v70,2013-02-07 07:56:00,
2013-02-07 02:01:00,33.1,31.6,30.09,NW,315,8.0,16.0,94,0.00,,,0.00,Weather View 32 v70,2013-02-07 08:01:00,
2013-02-07 02:06:00,32.9,31.4,30.09,NW,315,4.0,16.0,94,0.00,,,0.00,Weather View 32 v70,2013-02-07 08:06:00,
2013-02-07 02:11:00,32.8,31.3,30.09,WNW,292,10.0,16.0,94,0.00,,,0.00,Weather View 32 v70,2013-02-07 08:11:00,
2013-02-07 02:16:00,32.6,31.3,30.09,West,270,4.0,14.0,95,0.00,,,0.00,Weather View 32 v70,2013-02-07 08:16:00,
2013-02-07 02:21:00,32.6,31.1,30.09,NW,315,11.0,15.0,94,0.00,,,0.00,Weather View 32 v70,2013-02-07 08:21:00,
2013-02-07 02:26:00,32.5,31.2,30.10,WNW,292,10.0,15.0,95,0.00,,,0.00,Weather View 32 v70,2013-02-07 08:26:00,
2013-02-07 02:31:00,32.4,31.1,30.10,SW,225,1.0,15.0,95,0.00,,,0.00,Weather View 32 v70,2013-02-07 08:31:00,
2013-02-07 02:36:00,32.3,31.0,30.10,NW,315,12.0,15.0,95,0.00,,,0.00,Weather View 32 v70,2013-02-07 08:36:00,
2013-02-07 02:41:00,32.2,30.9,30.10,WNW,292,9.0,15.0,95,0.00,,,0.00,Weather View 32 v70,2013-02-07 08:41:00,
2013-02-07 02:46:00,32.1,30.8,30.10,NW,315,9.0,15.0,95,0.00,,,0.00,Weather View 32 v70,2013-02-07 08:46:00,
2013-02-07 02:51:00,32.0,30.7,30.10,West,270,8.0,15.0,95,0.00,,,0.00,Weather View 32 v70,2013-02-07 08:51:00,
2013-02-07 02:56:00,31.9,30.6,30.10,WNW,292,11.0,15.0,95,0.00,,,0.00,Weather View 32 v70,2013-02-07 08:56:00,
2013-02-07 03:02:00,31.9,30.6,30.10,NW,315,9.0,15.0,95,0.00,,,0.00,Weather View 32 v70,2013-02-07 09:02:00,
2013-02-07 03:07:00,31.9,30.6,30.10,WSW,247,3.0,15.0,95,0.00,,,0.00,Weather View 32 v70,2013-02-07 09:07:00,
2013-02-07 03:12:00,31.9,30.6,30.09,WNW,292,10.0,15.0,95,0.00,,,0.00,Weather View 32 v70,2013-02-07 09:12:00,
2013-02-07 03:19:00,31.6,30.3,30.10,NW,315,13.0,16.0,95,0.00,,,0.00,Weather View 32 v70,2013-02-07 09:19:00,
2013-02-07 03:29:00,31.6,30.3,30.10,NW,315,11.0,16.0,95,0.00,,,0.00,Weather View 32 v70,2013-02-07 09:29:00,
2013-02-07 03:35:00,31.6,30.3,30.10,NW,315,11.0,16.0,95,0.00,,,0.00,Weather View 32 v70,2013-02-07 09:35:00,
2013-02-07 03:40:00,31.6,30.3,30.10,NW,315,17.0,17.0,95,0.00,,,0.00,Weather View 32 v70,2013-02-07 09:40:00,
2013-02-07 03:45:00,31.6,30.3,30.10,NW,315,11.0,19.0,95,0.00,,,0.00,Weather View 32 v70,2013-02-07 09:45:00,
2013-02-07 03:50:00,31.4,30.1,30.10,NW,315,11.0,19.0,95,0.00,,,0.00,Weather View 32 v70,2013-02-07 09:50:00,
2013-02-07 03:55:00,31.3,30.0,30.10,WNW,292,10.0,19.0,95,0.00,,,0.00,Weather View 32 v70,2013-02-07 09:55:00,
2013-02-07 04:00:00,31.3,30.0,30.10,WNW,292,13.0,19.0,95,0.00,,,0.00,Weather View 32 v70,2013-02-07 10:00:00,
2013-02-07 04:05:00,31.2,29.9,30.10,SW,225,2.0,19.0,95,0.00,,,0.00,Weather View 32 v70,2013-02-07 10:05:00,
2013-02-07 04:11:00,31.3,30.0,30.10,WNW,292,8.0,19.0,95,0.00,,,0.00,Weather View 32 v70,2013-02-07 10:11:00,
2013-02-07 04:16:00,31.2,29.9,30.10,WNW,292,9.0,19.0,95,0.00,,,0.00,Weather View 32 v70,2013-02-07 10:16:00,
2013-02-07 04:21:00,31.1,29.8,30.10,WNW,292,12.0,19.0,95,0.00,,,0.00,Weather View 32 v70,2013-02-07 10:21:00,
2013-02-07 04:26:00,31.2,29.9,30.10,SW,225,1.0,19.0,95,0.00,,,0.00,Weather View 32 v70,2013-02-07 10:26:00,
2013-02-07 04:31:00,31.2,29.9,30.11,South,180,5.0,19.0,95,0.00,,,0.00,Weather View 32 v70,2013-02-07 10:31:00,
2013-02-07 04:36:00,31.1,29.8,30.11,NW,315,12.0,19.0,95,0.00,,,0.00,Weather View 32 v70,2013-02-07 10:36:00,
2013-02-07 04:41:00,31.1,29.8,30.11,West,270,8.0,19.0,95,0.00,,,0.00,Weather View 32 v70,2013-02-07 10:41:00,
2013-02-07 04:46:00,31.2,29.9,30.12,WNW,292,4.0,17.0,95,0.00,,,0.00,Weather View 32 v70,2013-02-07 10:46:00,
2013-02-07 04:51:00,31.3,30.0,30.12,West,270,9.0,19.0,95,0.00,,,0.00,Weather View 32 v70,2013-02-07 10:51:00,
2013-02-07 04:56:00,31.4,30.1,30.12,WNW,292,12.0,19.0,95,0.00,,,0.00,Weather View 32 v70,2013-02-07 10:56:00,
2013-02-07 05:01:00,31.5,30.2,30.12,NW,315,14.0,19.0,95,0.00,,,0.00,Weather View 32 v70,2013-02-07 11:01:00,
2013-02-07 05:06:00,31.5,30.2,30.11,NW,315,12.0,19.0,95,0.00,,,0.00,Weather View 32 v70,2013-02-07 11:06:00,
2013-02-07 05:11:00,31.6,30.3,30.11,NW,315,11.0,19.0,95,0.00,,,0.00,Weather View 32 v70,2013-02-07 11:11:00,
2013-02-07 05:16:00,31.6,30.3,30.12,NW,315,12.0,19.0,95,0.00,,,0.00,Weather View 32 v70,2013-02-07 11:16:00,
2013-02-07 05:21:00,31.6,30.3,30.12,NW,315,6.0,19.0,95,0.00,,,0.00,Weather View 32 v70,2013-02-07 11:21:00,
2013-02-07 05:26:00,31.6,30.3,30.12,NW,315,12.0,19.0,95,0.00,,,0.00,Weather View 32 v70,2013-02-07 11:26:00,
2013-02-07 05:31:00,31.7,30.4,30.12,NW,315,9.0,19.0,95,0.00,,,0.00,Weather View 32 v70,2013-02-07 11:31:00,
2013-02-07 05:36:00,31.6,30.3,30.12,NW,315,12.0,19.0,95,0.00,,,0.00,Weather View 32 v70,2013-02-07 11:36:00,
2013-02-07 05:41:00,31.3,30.0,30.13,NW,315,10.0,19.0,95,0.00,,,0.00,Weather View 32 v70,2013-02-07 11:41:00,
2013-02-07 05:46:00,30.9,29.4,30.13,NNW,337,10.0,19.0,94,0.00,,,0.00,Weather View 32 v70,2013-02-07 11:46:00,
2013-02-07 05:51:00,30.7,29.2,30.13,NNW,337,8.0,19.0,94,0.00,,,0.00,Weather View 32 v70,2013-02-07 11:51:00,
2013-02-07 05:56:00,30.5,29.0,30.13,NW,315,6.0,19.0,94,0.00,,,0.00,Weather View 32 v70,2013-02-07 11:56:00,
2013-02-07 06:01:00,30.4,28.9,30.13,NNW,337,2.0,19.0,94,0.00,,,0.00,Weather View 32 v70,2013-02-07 12:01:00,
2013-02-07 06:06:00,30.3,28.8,30.14,NW,315,6.0,19.0,94,0.00,,,0.00,Weather View 32 v70,2013-02-07 12:06:00,
2013-02-07 06:11:00,30.2,28.7,30.14,NW,315,7.0,19.0,94,0.00,,,0.00,Weather View 32 v70,2013-02-07 12:11:00,
2013-02-07 06:16:00,30.1,28.6,30.14,NW,315,8.0,19.0,94,0.00,,,0.00,Weather View 32 v70,2013-02-07 12:16:00,
2013-02-07 06:21:00,29.9,28.4,30.14,NW,315,7.0,19.0,94,0.00,,,0.00,Weather View 32 v70,2013-02-07 12:21:00,
2013-02-07 06:26:00,29.9,28.4,30.14,NW,315,11.0,19.0,94,0.00,,,0.00,Weather View 32 v70,2013-02-07 12:26:00,
2013-02-07 06:31:00,29.7,28.2,30.14,NW,315,12.0,19.0,94,0.00,,,0.00,Weather View 32 v70,2013-02-07 12:31:00,
2013-02-07 06:36:00,29.6,28.1,30.15,NW,315,12.0,19.0,94,0.00,,,0.00,Weather View 32 v70,2013-02-07 12:36:00,
2013-02-07 06:42:00,29.5,28.0,30.14,NW,315,11.0,19.0,94,0.00,,,0.00,Weather View 32 v70,2013-02-07 12:42:00,
2013-02-07 06:47:00,29.5,28.0,30.15,NW,315,7.0,19.0,94,0.00,,,0.00,Weather View 32 v70,2013-02-07 12:47:00,
2013-02-07 06:52:00,29.5,28.0,30.15,NW,315,9.0,17.0,94,0.00,,,0.00,Weather View 32 v70,2013-02-07 12:52:00,
2013-02-07 06:57:00,29.5,28.0,30.15,NNW,337,7.0,17.0,94,0.00,,,0.00,Weather View 32 v70,2013-02-07 12:57:00,
2013-02-07 07:02:00,29.6,28.1,30.16,NW,315,4.0,17.0,94,0.00,,,0.00,Weather View 32 v70,2013-02-07 13:02:00,
2013-02-07 07:07:00,29.6,28.1,30.16,NNW,337,3.0,17.0,94,0.00,,,0.00,Weather View 32 v70,2013-02-07 13:07:00,
2013-02-07 07:12:00,29.6,28.1,30.17,NNW,337,4.0,17.0,94,0.00,,,0.00,Weather View 32 v70,2013-02-07 13:12:00,
2013-02-07 07:17:00,29.7,28.2,30.17,NNW,337,6.0,17.0,94,0.00,,,0.00,Weather View 32 v70,2013-02-07 13:17:00,
2013-02-07 07:22:00,29.7,28.2,30.17,NW,315,10.0,17.0,94,0.00,,,0.00,Weather View 32 v70,2013-02-07 13:22:00,
2013-02-07 07:27:00,29.6,28.1,30.18,NNW,337,6.0,17.0,94,0.00,,,0.00,Weather View 32 v70,2013-02-07 13:27:00,
2013-02-07 07:32:00,29.6,28.1,30.18,North,360,10.0,17.0,94,0.00,,,0.00,Weather View 32 v70,2013-02-07 13:32:00,
2013-02-07 07:37:00,29.5,28.0,30.18,NW,315,11.0,15.0,94,0.00,,,0.00,Weather View 32 v70,2013-02-07 13:37:00,
2013-02-07 07:42:00,29.4,27.9,30.18,NW,315,6.0,15.0,94,0.00,,,0.00,Weather View 32 v70,2013-02-07 13:42:00,
2013-02-07 07:47:00,29.3,27.8,30.18,NW,315,11.0,15.0,94,0.00,,,0.00,Weather View 32 v70,2013-02-07 13:47:00,
2013-02-07 07:52:00,29.3,27.8,30.20,NW,315,10.0,15.0,94,0.00,,,0.00,Weather View 32 v70,2013-02-07 13:52:00,
2013-02-07 07:57:00,29.2,27.7,30.20,NW,315,6.0,15.0,94,0.00,,,0.00,Weather View 32 v70,2013-02-07 13:57:00,
2013-02-07 08:02:00,29.2,27.7,30.20,NW,315,4.0,15.0,94,0.00,,,0.00,Weather View 32 v70,2013-02-07 14:02:00,
2013-02-07 08:07:00,29.1,27.6,30.20,NW,315,10.0,15.0,94,0.00,,,0.00,Weather View 32 v70,2013-02-07 14:07:00,
2013-02-07 08:12:00,29.1,27.6,30.20,NNW,337,11.0,15.0,94,0.00,,,0.00,Weather View 32 v70,2013-02-07 14:12:00,
2013-02-07 08:17:00,29.1,27.6,30.21,NW,315,6.0,15.0,94,0.00,,,0.00,Weather View 32 v70,2013-02-07 14:17:00,
2013-02-07 08:22:00,29.1,27.6,30.21,NW,315,5.0,15.0,94,0.00,,,0.00,Weather View 32 v70,2013-02-07 14:22:00,
2013-02-07 08:27:00,29.0,27.5,30.22,NW,315,6.0,15.0,94,0.00,,,0.00,Weather View 32 v70,2013-02-07 14:27:00,
2013-02-07 08:32:00,28.9,27.1,30.22,North,360,4.0,15.0,93,0.00,,,0.00,Weather View 32 v70,2013-02-07 14:32:00,
2013-02-07 08:37:00,28.9,27.1,30.23,NW,315,9.0,15.0,93,0.00,,,0.00,Weather View 32 v70,2013-02-07 14:37:00,
2013-02-07 08:42:00,28.8,27.0,30.23,NW,315,12.0,15.0,93,0.00,,,0.00,Weather View 32 v70,2013-02-07 14:42:00,
2013-02-07 08:47:00,28.7,26.9,30.23,NW,315,8.0,15.0,93,0.00,,,0.00,Weather View 32 v70,2013-02-07 14:47:00,
2013-02-07 08:52:00,28.6,26.8,30.24,NW,315,12.0,17.0,93,0.00,,,0.00,Weather View 32 v70,2013-02-07 14:52:00,
2013-02-07 08:57:00,28.5,26.7,30.24,NNW,337,6.0,17.0,93,0.00,,,0.00,Weather View 32 v70,2013-02-07 14:57:00,
2013-02-07 09:02:00,28.5,26.5,30.23,NNW,337,6.0,17.0,92,0.00,,,0.00,Weather View 32 v70,2013-02-07 15:02:00,
2013-02-07 09:07:00,28.6,26.6,30.24,NNW,337,3.0,17.0,92,0.00,,,0.00,Weather View 32 v70,2013-02-07 15:07:00,
2013-02-07 09:12:00,28.5,26.5,30.24,North,360,4.0,17.0,92,0.00,,,0.00,Weather View 32 v70,2013-02-07 15:12:00,
2013-02-07 09:17:00,28.6,26.3,30.24,NNW,337,7.0,17.0,91,0.00,,,0.00,Weather View 32 v70,2013-02-07 15:17:00,
2013-02-07 09:22:00,28.6,26.3,30.24,NNE,22,2.0,17.0,91,0.00,,,0.00,Weather View 32 v70,2013-02-07 15:22:00,
2013-02-07 09:28:00,28.6,26.3,30.24,North,360,6.0,17.0,91,0.00,,,0.00,Weather View 32 v70,2013-02-07 15:28:00,
2013-02-07 09:33:00,28.6,26.3,30.24,NNW,337,4.0,17.0,91,0.00,,,0.00,Weather View 32 v70,2013-02-07 15:33:00,
2013-02-07 09:38:00,28.6,26.0,30.24,North,360,4.0,17.0,90,0.00,,,0.00,Weather View 32 v70,2013-02-07 15:38:00,
2013-02-07 09:43:00,28.7,26.1,30.24,NW,315,5.0,17.0,90,0.00,,,0.00,Weather View 32 v70,2013-02-07 15:43:00,
2013-02-07 09:48:00,28.7,26.1,30.24,North,360,3.0,17.0,90,0.00,,,0.00,Weather View 32 v70,2013-02-07 15:48:00,
2013-02-07 09:53:00,28.6,26.0,30.24,NW,315,8.0,15.0,90,0.00,,,0.00,Weather View 32 v70,2013-02-07 15:53:00,
2013-02-07 09:58:00,28.5,25.9,30.24,WNW,292,9.0,15.0,90,0.00,,,0.00,Weather View 32 v70,2013-02-07 15:58:00,
2013-02-07 10:03:00,28.5,25.9,30.24,NNW,337,6.0,15.0,90,0.00,,,0.00,Weather View 32 v70,2013-02-07 16:03:00,
2013-02-07 10:08:00,28.6,26.0,30.25,WNW,292,6.0,15.0,90,0.00,,,0.00,Weather View 32 v70,2013-02-07 16:08:00,
2013-02-07 10:13:00,28.5,25.7,30.25,North,360,2.0,17.0,89,0.00,,,0.00,Weather View 32 v70,2013-02-07 16:13:00,
2013-02-07 10:18:00,28.4,25.6,30.25,NW,315,9.0,19.0,89,0.00,,,0.00,Weather View 32 v70,2013-02-07 16:18:00,
2013-02-07 10:23:00,28.3,25.7,30.25,NNW,337,3.0,19.0,90,0.00,,,0.00,Weather View 32 v70,2013-02-07 16:23:00,
2013-02-07 10:28:00,28.4,25.8,30.25,NW,315,12.0,19.0,90,0.00,,,0.00,Weather View 32 v70,2013-02-07 16:28:00,
2013-02-07 10:33:00,28.3,25.7,30.25,NNW,337,10.0,19.0,90,0.00,,,0.00,Weather View 32 v70,2013-02-07 16:33:00,
2013-02-07 10:38:00,28.2,25.4,30.25,NW,315,10.0,21.0,89,0.00,,,0.00,Weather View 32 v70,2013-02-07 16:38:00,
2013-02-07 10:43:00,28.2,25.4,30.26,NW,315,6.0,21.0,89,0.00,,,0.00,Weather View 32 v70,2013-02-07 16:43:00,
2013-02-07 10:48:00,28.4,25.6,30.26,NNW,337,9.0,21.0,89,0.00,,,0.00,Weather View 32 v70,2013-02-07 16:48:00,
2013-02-07 10:53:00,28.6,25.8,30.26,NW,315,7.0,21.0,89,0.00,,,0.00,Weather View 32 v70,2013-02-07 16:53:00,
2013-02-07 10:58:00,28.8,25.4,30.26,NW,315,11.0,21.0,87,0.00,,,0.00,Weather View 32 v70,2013-02-07 16:58:00,
2013-02-07 11:03:00,28.8,25.1,30.27,NE,45,7.0,21.0,86,0.00,,,0.00,Weather View 32 v70,2013-02-07 17:03:00,
2013-02-07 11:08:00,28.9,25.2,30.27,NW,315,11.0,21.0,86,0.00,,,0.00,Weather View 32 v70,2013-02-07 17:08:00,
2013-02-07 11:13:00,29.0,25.6,30.27,North,360,8.0,21.0,87,0.00,,,0.00,Weather View 32 v70,2013-02-07 17:13:00,
2013-02-07 11:18:00,28.9,25.2,30.26,NW,315,7.0,21.0,86,0.00,,,0.00,Weather View 32 v70,2013-02-07 17:18:00,
2013-02-07 11:23:00,28.9,25.2,30.26,NNW,337,5.0,21.0,86,0.00,,,0.00,Weather View 32 v70,2013-02-07 17:23:00,
2013-02-07 11:28:00,29.1,25.4,30.27,North,360,4.0,21.0,86,0.00,,,0.00,Weather View 32 v70,2013-02-07 17:28:00,
2013-02-07 11:33:00,29.1,25.7,30.26,NNW,337,7.0,21.0,87,0.00,,,0.00,Weather View 32 v70,2013-02-07 17:33:00,
2013-02-07 11:38:00,29.1,25.4,30.26,NNW,337,9.0,20.0,86,0.00,,,0.00,Weather View 32 v70,2013-02-07 17:38:00,
2013-02-07 11:43:00,29.1,25.4,30.26,NW,315,14.0,20.0,86,0.00,,,0.00,Weather View 32 v70,2013-02-07 17:43:00,
2013-02-07 11:48:00,29.0,25.6,30.26,NW,315,6.0,20.0,87,0.00,,,0.00,Weather View 32 v70,2013-02-07 17:48:00,
2013-02-07 11:54:00,29.1,25.4,30.26,NW,315,9.0,20.0,86,0.00,,,0.00,Weather View 32 v70,2013-02-07 17:54:00,
2013-02-07 11:59:00,29.2,25.5,30.26,NNW,337,3.0,19.0,86,0.00,,,0.00,Weather View 32 v70,2013-02-07 17:59:00,
2013-02-07 12:04:00,29.2,25.3,30.26,North,360,5.0,19.0,85,0.00,,,0.00,Weather View 32 v70,2013-02-07 18:04:00,
2013-02-07 12:09:00,29.2,25.5,30.26,NW,315,19.0,19.0,86,0.00,,,0.00,Weather View 32 v70,2013-02-07 18:09:00,
2013-02-07 12:14:00,29.1,25.4,30.26,North,360,10.0,19.0,86,0.00,,,0.00,Weather View 32 v70,2013-02-07 18:14:00,
2013-02-07 12:19:00,29.1,25.4,30.26,WNW,292,4.0,19.0,86,0.00,,,0.00,Weather View 32 v70,2013-02-07 18:19:00,
2013-02-07 12:24:00,29.0,25.6,30.26,NW,315,4.0,19.0,87,0.00,,,0.00,Weather View 32 v70,2013-02-07 18:24:00,
2013-02-07 12:29:00,29.1,25.7,30.26,NNW,337,7.0,19.0,87,0.00,,,0.00,Weather View 32 v70,2013-02-07 18:29:00,
2013-02-07 12:34:00,28.9,25.5,30.26,NW,315,11.0,21.0,87,0.00,,,0.00,Weather View 32 v70,2013-02-07 18:34:00,
2013-02-07 12:39:00,28.9,25.2,30.26,NW,315,4.0,21.0,86,0.00,,,0.00,Weather View 32 v70,2013-02-07 18:39:00,
2013-02-07 12:44:00,29.0,24.8,30.26,NW,315,2.0,21.0,84,0.00,,,0.00,Weather View 32 v70,2013-02-07 18:44:00,
2013-02-07 12:49:00,29.1,24.9,30.26,NW,315,7.0,21.0,84,0.00,,,0.00,Weather View 32 v70,2013-02-07 18:49:00,
2013-02-07 12:54:00,29.2,25.3,30.26,NW,315,13.0,21.0,85,0.00,,,0.00,Weather View 32 v70,2013-02-07 18:54:00,
2013-02-07 12:59:00,29.1,24.9,30.26,NW,315,9.0,21.0,84,0.00,,,0.00,Weather View 32 v70,2013-02-07 18:59:00,
2013-02-07 13:04:00,29.2,25.0,30.26,NW,315,9.0,21.0,84,0.00,,,0.00,Weather View 32 v70,2013-02-07 19:04:00,
2013-02-07 13:09:00,29.2,25.0,30.26,NW,315,15.0,21.0,84,0.00,,,0.00,Weather View 32 v70,2013-02-07 19:09:00,
2013-02-07 13:15:00,29.1,24.9,30.26,NW,315,12.0,21.0,84,0.00,,,0.00,Weather View 32 v70,2013-02-07 19:15:00,
2013-02-07 13:20:00,29.2,25.0,30.26,NW,315,16.0,21.0,84,0.00,,,0.00,Weather View 32 v70,2013-02-07 19:20:00,
2013-02-07 13:25:00,29.2,25.3,30.26,NW,315,9.0,21.0,85,0.00,,,0.00,Weather View 32 v70,2013-02-07 19:25:00,
2013-02-07 13:30:00,29.2,25.5,30.26,WNW,292,17.0,21.0,86,0.00,,,0.00,Weather View 32 v70,2013-02-07 19:30:00,
2013-02-07 13:35:00,29.1,25.2,30.26,NW,315,14.0,19.0,85,0.00,,,0.00,Weather View 32 v70,2013-02-07 19:35:00,
2013-02-07 13:40:00,29.0,25.3,30.26,NW,315,10.0,19.0,86,0.00,,,0.00,Weather View 32 v70,2013-02-07 19:40:00,
2013-02-07 13:45:00,29.0,25.3,30.26,WNW,292,10.0,21.0,86,0.00,,,0.00,Weather View 32 v70,2013-02-07 19:45:00,
2013-02-07 13:50:00,29.1,24.9,30.26,NW,315,14.0,21.0,84,0.00,,,0.00,Weather View 32 v70,2013-02-07 19:50:00,
2013-02-07 13:55:00,29.1,24.9,30.26,NW,315,15.0,21.0,84,0.00,,,0.00,Weather View 32 v70,2013-02-07 19:55:00,
2013-02-07 14:00:00,29.1,24.9,30.26,NW,315,10.0,21.0,84,0.00,,,0.00,Weather View 32 v70,2013-02-07 20:00:00,
2013-02-07 14:05:00,29.2,25.0,30.26,NW,315,11.0,21.0,84,0.00,,,0.00,Weather View 32 v70,2013-02-07 20:05:00,
2013-02-07 14:10:00,29.2,24.7,30.25,NW,315,16.0,21.0,83,0.00,,,0.00,Weather View 32 v70,2013-02-07 20:10:00,
2013-02-07 14:15:00,29.4,24.9,30.25,NW,315,7.0,21.0,83,0.00,,,0.00,Weather View 32 v70,2013-02-07 20:15:00,
2013-02-07 14:20:00,29.5,25.0,30.26,NW,315,13.0,21.0,83,0.00,,,0.00,Weather View 32 v70,2013-02-07 20:20:00,
2013-02-07 14:25:00,29.5,25.0,30.26,NW,315,17.0,21.0,83,0.00,,,0.00,Weather View 32 v70,2013-02-07 20:25:00,
2013-02-07 14:30:00,29.2,24.7,30.25,NW,315,12.0,21.0,83,0.00,,,0.00,Weather View 32 v70,2013-02-07 20:30:00,
2013-02-07 14:35:00,29.2,25.0,30.25,NW,315,14.0,21.0,84,0.00,,,0.00,Weather View 32 v70,2013-02-07 20:35:00,
2013-02-07 14:40:00,29.2,25.0,30.26,WNW,292,10.0,21.0,84,0.00,,,0.00,Weather View 32 v70,2013-02-07 20:40:00,
2013-02-07 14:45:00,29.3,24.8,30.26,NW,315,11.0,21.0,83,0.00,,,0.00,Weather View 32 v70,2013-02-07 20:45:00,
2013-02-07 14:50:00,29.3,24.8,30.26,NW,315,10.0,21.0,83,0.00,,,0.00,Weather View 32 v70,2013-02-07 20:50:00,
2013-02-07 14:55:00,29.4,25.2,30.26,North,360,10.0,21.0,84,0.00,,,0.00,Weather View 32 v70,2013-02-07 20:55:00,
2013-02-07 15:00:00,29.5,24.4,30.26,WNW,292,13.0,21.0,81,0.00,,,0.00,Weather View 32 v70,2013-02-07 21:00:00,
2013-02-07 15:05:00,29.5,24.7,30.26,NW,315,6.0,21.0,82,0.00,,,0.00,Weather View 32 v70,2013-02-07 21:05:00,
2013-02-07 15:10:00,29.7,24.9,30.26,North,360,2.0,21.0,82,0.00,,,0.00,Weather View 32 v70,2013-02-07 21:10:00,
2013-02-07 15:15:00,29.9,24.8,30.26,NW,315,11.0,21.0,81,0.00,,,0.00,Weather View 32 v70,2013-02-07 21:15:00,
2013-02-07 15:20:00,29.8,25.0,30.26,NW,315,7.0,21.0,82,0.00,,,0.00,Weather View 32 v70,2013-02-07 21:20:00,
2013-02-07 15:25:00,29.9,24.8,30.26,WNW,292,6.0,21.0,81,0.00,,,0.00,Weather View 32 v70,2013-02-07 21:25:00,
2013-02-07 15:30:00,29.9,24.8,30.27,NW,315,7.0,19.0,81,0.00,,,0.00,Weather View 32 v70,2013-02-07 21:30:00,
2013-02-07 15:35:00,30.1,25.0,30.27,NNW,337,4.0,19.0,81,0.00,,,0.00,Weather View 32 v70,2013-02-07 21:35:00,
2013-02-07 15:40:00,30.1,25.0,30.28,NW,315,7.0,19.0,81,0.00,,,0.00,Weather View 32 v70,2013-02-07 21:40:00,
2013-02-07 15:45:00,30.1,25.3,30.28,NW,315,12.0,18.0,82,0.00,,,0.00,Weather View 32 v70,2013-02-07 21:45:00,
2013-02-07 15:50:00,29.9,24.8,30.27,NNW,337,9.0,18.0,81,0.00,,,0.00,Weather View 32 v70,2013-02-07 21:50:00,
2013-02-07 15:55:00,29.8,25.0,30.28,NW,315,12.0,19.0,82,0.00,,,0.00,Weather View 32 v70,2013-02-07 21:55:00,
2013-02-07 16:00:00,29.8,25.3,30.27,NW,315,17.0,19.0,83,0.00,,,0.00,Weather View 32 v70,2013-02-07 22:00:00,
2013-02-07 16:05:00,29.8,25.0,30.28,WNW,292,19.0,19.0,82,0.00,,,0.00,Weather View 32 v70,2013-02-07 22:05:00,
2013-02-07 16:10:00,29.7,24.9,30.28,NW,315,10.0,20.0,82,0.00,,,0.00,Weather View 32 v70,2013-02-07 22:10:00,
2013-02-07 16:15:00,29.7,24.9,30.28,NNW,337,12.0,20.0,82,0.00,,,0.00,Weather View 32 v70,2013-02-07 22:15:00,
2013-02-07 16:20:00,29.7,24.6,30.28,NW,315,11.0,20.0,81,0.00,,,0.00,Weather View 32 v70,2013-02-07 22:20:00,
2013-02-07 16:25:00,29.7,24.6,30.29,North,360,2.0,20.0,81,0.00,,,0.00,Weather View 32 v70,2013-02-07 22:25:00,
2013-02-07 16:30:00,29.8,24.7,30.29,NNW,337,7.0,20.0,81,0.00,,,0.00,Weather View 32 v70,2013-02-07 22:30:00,
2013-02-07 16:35:00,29.8,24.7,30.29,NW,315,7.0,20.0,81,0.00,,,0.00,Weather View 32 v70,2013-02-07 22:35:00,
2013-02-07 16:40:00,29.8,24.4,30.29,North,360,4.0,20.0,80,0.00,,,0.00,Weather View 32 v70,2013-02-07 22:40:00,
2013-02-07 16:45:00,29.8,24.7,30.29,North,360,1.0,20.0,81,0.00,,,0.00,Weather View 32 v70,2013-02-07 22:45:00,
2013-02-07 16:50:00,29.9,24.8,30.29,NW,315,9.0,20.0,81,0.00,,,0.00,Weather View 32 v70,2013-02-07 22:50:00,
2013-02-07 16:55:00,29.9,24.8,30.29,NW,315,4.0,20.0,81,0.00,,,0.00,Weather View 32 v70,2013-02-07 22:55:00,
2013-02-07 17:00:00,29.9,24.8,30.29,North,360,5.0,20.0,81,0.00,,,0.00,Weather View 32 v70,2013-02-07 23:00:00,
2013-02-07 17:05:00,29.9,24.8,30.30,NW,315,1.0,20.0,81,0.00,,,0.00,Weather View 32 v70,2013-02-07 23:05:00,
2013-02-07 17:10:00,29.8,25.0,30.30,NW,315,10.0,18.0,82,0.00,,,0.00,Weather View 32 v70,2013-02-07 23:10:00,
2013-02-07 17:16:00,29.7,24.9,30.30,NNW,337,9.0,17.0,82,0.00,,,0.00,Weather View 32 v70,2013-02-07 23:16:00,
2013-02-07 17:21:00,29.7,24.9,30.30,NW,315,6.0,16.0,82,0.00,,,0.00,Weather View 32 v70,2013-02-07 23:21:00,
2013-02-07 17:26:00,29.7,24.9,30.30,NW,315,8.0,16.0,82,0.00,,,0.00,Weather View 32 v70,2013-02-07 23:26:00,
2013-02-07 17:31:00,29.5,24.7,30.30,NW,315,8.0,17.0,82,0.00,,,0.00,Weather View 32 v70,2013-02-07 23:31:00,
2013-02-07 17:36:00,29.5,24.7,30.31,NW,315,9.0,18.0,82,0.00,,,0.00,Weather View 32 v70,2013-02-07 23:36:00,
2013-02-07 17:41:00,29.4,24.6,30.31,NW,315,9.0,18.0,82,0.00,,,0.00,Weather View 32 v70,2013-02-07 23:41:00,
2013-02-07 17:46:00,29.3,24.5,30.31,NW,315,1.0,18.0,82,0.00,,,0.00,Weather View 32 v70,2013-02-07 23:46:00,
2013-02-07 17:51:00,29.3,24.2,30.32,NW,315,2.0,18.0,81,0.00,,,0.00,Weather View 32 v70,2013-02-07 23:51:00,
2013-02-07 17:56:00,29.2,24.4,30.32,NNE,22,6.0,18.0,82,0.00,,,0.00,Weather View 32 v70,2013-02-07 23:56:00,
2013-02-07 18:01:00,29.2,24.4,30.32,North,360,2.0,18.0,82,0.00,,,0.00,Weather View 32 v70,2013-02-08 00:01:00,
2013-02-07 18:06:00,29.1,24.3,30.32,North,360,2.0,18.0,82,0.00,,,0.00,Weather View 32 v70,2013-02-08 00:06:00,
2013-02-07 18:11:00,29.1,24.3,30.32,North,360,2.0,18.0,82,0.00,,,0.00,Weather View 32 v70,2013-02-08 00:11:00,
2013-02-07 18:16:00,29.0,24.2,30.33,NNW,337,3.0,18.0,82,0.00,,,0.00,Weather View 32 v70,2013-02-08 00:16:00,
2013-02-07 18:21:00,28.9,24.4,30.33,North,360,4.0,18.0,83,0.00,,,0.00,Weather View 32 v70,2013-02-08 00:21:00,
2013-02-07 18:26:00,28.9,23.8,30.33,North,360,2.0,18.0,81,0.00,,,0.00,Weather View 32 v70,2013-02-08 00:26:00,
2013-02-07 18:31:00,28.9,23.8,30.33,North,360,5.0,18.0,81,0.00,,,0.00,Weather View 32 v70,2013-02-08 00:31:00,
2013-02-07 18:36:00,28.9,23.8,30.33,NW,315,2.0,17.0,81,0.00,,,0.00,Weather View 32 v70,2013-02-08 00:36:00,
2013-02-07 18:41:00,28.8,24.0,30.34,North,360,3.0,17.0,82,0.00,,,0.00,Weather View 32 v70,2013-02-08 00:41:00,
2013-02-07 18:46:00,28.8,23.7,30.33,North,360,9.0,12.0,81,0.00,,,0.00,Weather View 32 v70,2013-02-08 00:46:00,
2013-02-07 18:51:00,28.8,23.7,30.33,North,360,3.0,11.0,81,0.00,,,0.00,Weather View 32 v70,2013-02-08 00:51:00,
2013-02-07 18:56:00,28.7,23.6,30.34,NE,45,4.0,11.0,81,0.00,,,0.00,Weather View 32 v70,2013-02-08 00:56:00,
2013-02-07 19:01:00,28.6,23.2,30.34,NW,315,2.0,11.0,80,0.00,,,0.00,Weather View 32 v70,2013-02-08 01:01:00,
2013-02-07 19:06:00,28.5,23.1,30.34,North,360,3.0,11.0,80,0.00,,,0.00,Weather View 32 v70,2013-02-08 01:06:00,
2013-02-07 19:11:00,28.4,23.3,30.34,NW,315,6.0,11.0,81,0.00,,,0.00,Weather View 32 v70,2013-02-08 01:11:00,
2013-02-07 19:16:00,28.4,23.3,30.35,NW,315,5.0,11.0,81,0.00,,,0.00,Weather View 32 v70,2013-02-08 01:16:00,
2013-02-07 19:21:00,28.3,23.2,30.35,NW,315,7.0,11.0,81,0.00,,,0.00,Weather View 32 v70,2013-02-08 01:21:00,
2013-02-07 19:26:00,28.3,23.2,30.35,North,360,3.0,11.0,81,0.00,,,0.00,Weather View 32 v70,2013-02-08 01:26:00,
2013-02-07 19:31:00,28.3,23.5,30.35,NW,315,4.0,11.0,82,0.00,,,0.00,Weather View 32 v70,2013-02-08 01:31:00,
2013-02-07 19:36:00,28.3,23.5,30.35,NNW,337,3.0,11.0,82,0.00,,,0.00,Weather View 32 v70,2013-02-08 01:36:00,
2013-02-07 19:41:00,28.2,23.4,30.35,NW,315,4.0,11.0,82,0.00,,,0.00,Weather View 32 v70,2013-02-08 01:41:00,
2013-02-07 19:46:00,28.2,23.4,30.35,North,360,1.0,11.0,82,0.00,,,0.00,Weather View 32 v70,2013-02-08 01:46:00,
2013-02-07 19:51:00,28.3,23.5,30.35,NE,45,6.0,11.0,82,0.00,,,0.00,Weather View 32 v70,2013-02-08 01:51:00,
2013-02-07 19:56:00,28.3,23.5,30.35,North,360,3.0,11.0,82,0.00,,,0.00,Weather View 32 v70,2013-02-08 01:56:00,
2013-02-07 20:01:00,28.1,23.0,30.35,North,360,3.0,11.0,81,0.00,,,0.00,Weather View 32 v70,2013-02-08 02:01:00,
2013-02-07 20:06:00,28.0,22.9,30.35,NW,315,5.0,11.0,81,0.00,,,0.00,Weather View 32 v70,2013-02-08 02:06:00,
2013-02-07 20:11:00,27.9,23.1,30.35,NW,315,2.0,11.0,82,0.00,,,0.00,Weather View 32 v70,2013-02-08 02:11:00,
2013-02-07 20:17:00,27.9,23.1,30.35,NNW,337,4.0,11.0,82,0.00,,,0.00,Weather View 32 v70,2013-02-08 02:17:00,
2013-02-07 20:22:00,27.9,23.1,30.36,NNE,22,2.0,11.0,82,0.00,,,0.00,Weather View 32 v70,2013-02-08 02:22:00,
2013-02-07 20:27:00,27.8,23.0,30.36,NNW,337,1.0,11.0,82,0.00,,,0.00,Weather View 32 v70,2013-02-08 02:27:00,
2013-02-07 20:32:00,27.8,23.0,30.36,North,360,2.0,11.0,82,0.00,,,0.00,Weather View 32 v70,2013-02-08 02:32:00,
2013-02-07 20:37:00,27.7,22.9,30.36,North,360,4.0,11.0,82,0.00,,,0.00,Weather View 32 v70,2013-02-08 02:37:00,
2013-02-07 20:42:00,27.7,22.9,30.36,NW,315,1.0,11.0,82,0.00,,,0.00,Weather View 32 v70,2013-02-08 02:42:00,
2013-02-07 20:47:00,27.6,22.8,30.37,North,360,4.0,11.0,82,0.00,,,0.00,Weather View 32 v70,2013-02-08 02:47:00,
2013-02-07 20:52:00,27.6,22.8,30.37,NNE,22,6.0,11.0,82,0.00,,,0.00,Weather View 32 v70,2013-02-08 02:52:00,
2013-02-07 20:57:00,27.5,22.4,30.37,North,360,4.0,11.0,81,0.00,,,0.00,Weather View 32 v70,2013-02-08 02:57:00,
2013-02-07 21:02:00,27.5,22.7,30.37,NNE,22,1.0,11.0,82,0.00,,,0.00,Weather View 32 v70,2013-02-08 03:02:00,
2013-02-07 21:07:00,27.5,22.7,30.37,NNE,22,4.0,10.0,82,0.00,,,0.00,Weather View 32 v70,2013-02-08 03:07:00,
2013-02-07 21:12:00,27.5,22.7,30.37,NNE,22,5.0,10.0,82,0.00,,,0.00,Weather View 32 v70,2013-02-08 03:12:00,
2013-02-07 21:17:00,27.5,22.7,30.37,NE,45,6.0,10.0,82,0.00,,,0.00,Weather View 32 v70,2013-02-08 03:17:00,
2013-02-07 21:22:00,27.5,22.4,30.37,North,360,4.0,10.0,81,0.00,,,0.00,Weather View 32 v70,2013-02-08 03:22:00,
2013-02-07 21:27:00,27.4,22.3,30.37,NW,315,3.0,10.0,81,0.00,,,0.00,Weather View 32 v70,2013-02-08 03:27:00,
2013-02-07 21:32:00,27.4,22.3,30.37,NNE,22,3.0,10.0,81,0.00,,,0.00,Weather View 32 v70,2013-02-08 03:32:00,
2013-02-07 21:37:00,27.4,22.3,30.37,North,360,2.0,10.0,81,0.00,,,0.00,Weather View 32 v70,2013-02-08 03:37:00,
2013-02-07 21:42:00,27.4,22.3,30.37,North,360,1.0,10.0,81,0.00,,,0.00,Weather View 32 v70,2013-02-08 03:42:00,
2013-02-07 21:47:00,27.4,22.3,30.37,North,360,1.0,10.0,81,0.00,,,0.00,Weather View 32 v70,2013-02-08 03:47:00,
2013-02-07 21:52:00,27.3,22.2,30.37,NE,45,1.0,10.0,81,0.00,,,0.00,Weather View 32 v70,2013-02-08 03:52:00,
2013-02-07 21:57:00,27.4,22.3,30.38,North,360,5.0,10.0,81,0.00,,,0.00,Weather View 32 v70,2013-02-08 03:57:00,
2013-02-07 22:02:00,27.4,22.0,30.37,NNE,22,1.0,10.0,80,0.00,,,0.00,Weather View 32 v70,2013-02-08 04:02:00,
2013-02-07 22:09:00,27.3,22.2,30.37,NE,45,1.0,10.0,81,0.00,,,0.00,Weather View 32 v70,2013-02-08 04:09:00,
2013-02-07 22:14:00,27.3,22.2,30.37,NNE,22,4.0,10.0,81,0.00,,,0.00,Weather View 32 v70,2013-02-08 04:14:00,
2013-02-07 22:19:00,27.2,22.1,30.37,NE,45,1.0,9.0,81,0.00,,,0.00,Weather View 32 v70,2013-02-08 04:19:00,
2013-02-07 22:24:00,27.2,22.1,30.37,NE,45,2.0,8.0,81,0.00,,,0.00,Weather View 32 v70,2013-02-08 04:24:00,
2013-02-07 22:29:00,27.1,22.0,30.37,NE,45,3.0,8.0,81,0.00,,,0.00,Weather View 32 v70,2013-02-08 04:29:00,
2013-02-07 22:34:00,27.1,22.3,30.37,NNE,22,2.0,8.0,82,0.00,,,0.00,Weather View 32 v70,2013-02-08 04:34:00,
2013-02-07 22:39:00,27.0,22.2,30.38,NE,45,3.0,8.0,82,0.00,,,0.00,Weather View 32 v70,2013-02-08 04:39:00,
2013-02-07 22:44:00,26.9,22.1,30.38,NE,45,2.0,8.0,82,0.00,,,0.00,Weather View 32 v70,2013-02-08 04:44:00,
2013-02-07 22:49:00,26.8,22.0,30.37,North,360,1.0,8.0,82,0.00,,,0.00,Weather View 32 v70,2013-02-08 04:49:00,
2013-02-07 22:54:00,26.7,22.2,30.37,NNE,22,2.0,8.0,83,0.00,,,0.00,Weather View 32 v70,2013-02-08 04:54:00,
2013-02-07 22:59:00,26.6,22.4,30.38,NE,45,2.0,8.0,84,0.00,,,0.00,Weather View 32 v70,2013-02-08 04:59:00,
2013-02-07 23:00:00,26.6,22.7,30.38,NE,45,3.0,8.0,85,0.00,,,0.00,Weather View 32 v70,2013-02-08 05:00:00,
2013-02-07 23:05:00,26.5,22.6,30.38,North,360,2.0,8.0,85,0.00,,,0.00,Weather View 32 v70,2013-02-08 05:05:00,
2013-02-07 23:10:00,26.4,22.2,30.38,NE,45,4.0,8.0,84,0.00,,,0.00,Weather View 32 v70,2013-02-08 05:10:00,
2013-02-07 23:15:00,26.4,22.2,30.38,NE,45,2.0,8.0,84,0.00,,,0.00,Weather View 32 v70,2013-02-08 05:15:00,
2013-02-07 23:20:00,26.3,22.4,30.38,NE,45,3.0,7.0,85,0.00,,,0.00,Weather View 32 v70,2013-02-08 05:20:00,
2013-02-07 23:25:00,26.2,21.7,30.39,NE,45,2.0,7.0,83,0.00,,,0.00,Weather View 32 v70,2013-02-08 05:25:00,
2013-02-07 23:30:00,26.1,21.9,30.39,NE,45,1.0,7.0,84,0.00,,,0.00,Weather View 32 v70,2013-02-08 05:30:00,
2013-02-07 23:35:00,25.9,22.3,30.39,NE,45,2.0,7.0,86,0.00,,,0.00,Weather View 32 v70,2013-02-08 05:35:00,
2013-02-07 23:40:00,25.9,22.3,30.40,NNE,22,1.0,7.0,86,0.00,,,0.00,Weather View 32 v70,2013-02-08 05:40:00,
2013-02-07 23:45:00,25.9,22.3,30.40,NNE,22,1.0,7.0,86,0.00,,,0.00,Weather View 32 v70,2013-02-08 05:45:00,
2013-02-07 23:50:00,25.8,22.5,30.40,NNE,22,1.0,7.0,87,0.00,,,0.00,Weather View 32 v70,2013-02-08 05:50:00,
2013-02-07 23:55:00,25.7,22.1,30.40,North,360,4.0,7.0,86,0.00,,,0.00,Weather View 32 v70,2013-02-08 05:55:00,